When you browse on this site, cookies collect data to enhance your experience and personalize the content and advertising you see.
Visit our Privacy Policy to learn more. By continuing to use the site, you agree to this use of cookies and data.
  • In United Kingdom
  • List of Countries
  • For 7 days
  • Water Temperature
  • Satellite Maps
  • Weather Map
  • Weather Widgets
  • user-avatar
    Login

    Hourly Weather Mitu

    Today, 21 November, Wednesday

    Time Temperature Precipitation Wind Pressure Humidity
    00:00 +22°C° 0 mm 0 mps 738 mmHg 98%
    01:00 +22°C° 0 mm 0 mps 738 mmHg 98%
    02:00 +22°C° 0 mm 0 mps 738 mmHg 98%
    03:00 +22°C° 0 mm 0 mps 738 mmHg 98%
    04:00 +22°C° 0 mm 0 mps 738 mmHg 99%
    05:00 +23°C° 0 mm 0 mps 738 mmHg 98%
    06:00 +23°C° 0 mm 0 mps 739 mmHg 97%
    07:00 +24°C° 0 mm 0 mps 739 mmHg 95%
    08:00 +24°C° 1.1 mm 0 mps 739 mmHg 95%
    09:00 +25°C° 1.1 mm 0 mps 740 mmHg 94%
    10:00 +26°C° 1.1 mm 0 mps 740 mmHg 93%
    11:00 +26°C° 1.2 mm 0 mps 739 mmHg 92%
    12:00 +26°C° 1.2 mm 0 mps 739 mmHg 90%
    13:00 +26°C° 1.2 mm 0 mps 738 mmHg 89%
    14:00 +26°C° 0.7 mm 0 mps 738 mmHg 91%
    15:00 +26°C° 0.7 mm 0 mps 737 mmHg 93%
    16:00 +26°C° 0.7 mm 0 mps 737 mmHg 95%
    17:00 +25°C° 0.4 mm 0 mps 737 mmHg 96%
    18:00 +24°C° 0.4 mm 0 mps 737 mmHg 97%
    19:00 +23°C° 0.4 mm 0 mps 737 mmHg 98%
    20:00 +23°C° 0 mm 0 mps 738 mmHg 98%
    21:00 +23°C° 0 mm 0 mps 738 mmHg 98%
    22:00 +23°C° 0 mm 0 mps 739 mmHg 98%
    23:00 +22°C° 0.1 mm 0 mps 738 mmHg 99%

    Tomorrow, 22 November, Thursday

    Time Temperature Precipitation Wind Pressure Humidity
    00:00 +22°C° 0.1 mm 0 mps 738 mmHg 99%
    01:00 +22°C° 0.1 mm 0 mps 738 mmHg 99%
    02:00 +22°C° 0.1 mm 0 mps 738 mmHg 99%
    03:00 +22°C° 0.1 mm 0 mps 738 mmHg 99%
    04:00 +22°C° 0.1 mm 0 mps 737 mmHg 99%
    05:00 +22°C° 0 mm 0 mps 738 mmHg 98%
    06:00 +23°C° 0 mm 0 mps 738 mmHg 98%
    07:00 +23°C° 0 mm 0 mps 739 mmHg 97%
    08:00 +24°C° 1.2 mm 0 mps 739 mmHg 94%
    09:00 +26°C° 1.2 mm 0 mps 739 mmHg 92%
    10:00 +27°C° 1.2 mm 0 mps 739 mmHg 90%
    11:00 +27°C° 1.2 mm 0 mps 738 mmHg 86%
    12:00 +28°C° 1.2 mm 0 mps 737 mmHg 83%
    13:00 +28°C° 1.2 mm 0 mps 737 mmHg 80%
    14:00 +28°C° 1.6 mm 0 mps 736 mmHg 85%
    15:00 +27°C° 1.6 mm 0 mps 736 mmHg 90%
    16:00 +26°C° 1.6 mm 0 mps 735 mmHg 95%
    17:00 +25°C° 1 mm 0 mps 736 mmHg 96%
    18:00 +24°C° 1 mm 0 mps 736 mmHg 96%
    19:00 +23°C° 1 mm 0 mps 737 mmHg 97%
    20:00 +23°C° 0.3 mm 0 mps 737 mmHg 98%
    21:00 +23°C° 0.3 mm 0 mps 738 mmHg 98%
    22:00 +23°C° 0.3 mm 0 mps 738 mmHg 98%
    23:00 +23°C° 0.6 mm 0 mps 738 mmHg 98%

    Day after tomorrow, 23 November, Friday

    Time Temperature Precipitation Wind Pressure Humidity
    00:00 +23°C° 0.6 mm 0 mps 737 mmHg 99%
    01:00 +23°C° 0.6 mm 0 mps 737 mmHg 99%
    02:00 +22°C° 0.7 mm 0 mps 737 mmHg 99%
    03:00 +22°C° 0.7 mm 0 mps 736 mmHg 99%
    04:00 +22°C° 0.7 mm 0 mps 736 mmHg 99%
    05:00 +23°C° 0.6 mm 0 mps 737 mmHg 99%
    06:00 +23°C° 0.6 mm 0 mps 737 mmHg 99%
    07:00 +25°C° 0.6 mm 1 mps 738 mmHg 99%
    08:00 +26°C° 0.2 mm 1 mps 738 mmHg 95%
    09:00 +27°C° 0.2 mm 1 mps 739 mmHg 91%
    10:00 +28°C° 0.2 mm 1 mps 739 mmHg 87%
    11:00 +29°C° 0.2 mm 1 mps 738 mmHg 83%
    12:00 +29°C° 0.2 mm 1 mps 737 mmHg 80%
    13:00 +30°C° 0.2 mm 2 mps 737 mmHg 77%
    14:00 +29°C° 0.3 mm 1 mps 736 mmHg 81%
    15:00 +28°C° 0.3 mm 1 mps 735 mmHg 85%
    16:00 +27°C° 0.3 mm 1 mps 735 mmHg 89%
    17:00 +26°C° 0 mm 1 mps 735 mmHg 92%
    18:00 +26°C° 0 mm 1 mps 736 mmHg 95%
    19:00 +25°C° 0 mm 1 mps 736 mmHg 98%
    20:00 +23°C° 0 mm 0 mps 737 mmHg 98%
    21:00 +23°C° 0 mm 0 mps 737 mmHg 98%
    22:00 +22°C° 0 mm 0 mps 738 mmHg 98%
    23:00 +22°C° 0 mm 0 mps 737 mmHg 99%

    24 November, Saturday

    Time Temperature Precipitation Wind Pressure Humidity
    00:00 +22°C° 0 mm 0 mps 737 mmHg 99%
    01:00 +22°C° 0 mm 0 mps 737 mmHg 99%
    02:00 +22°C° 0 mm 0 mps 736 mmHg 99%
    03:00 +22°C° 0 mm 0 mps 736 mmHg 98%
    04:00 +22°C° 0 mm 0 mps 736 mmHg 98%
    05:00 +24°C° 0 mm 1 mps 737 mmHg 96%
    06:00 +25°C° 0 mm 1 mps 737 mmHg 93%
    07:00 +26°C° 0 mm 1 mps 738 mmHg 90%
    08:00 +28°C° 0 mm 1 mps 738 mmHg 80%
    09:00 +30°C° 0 mm 1 mps 738 mmHg 69%
    10:00 +32°C° 0 mm 2 mps 739 mmHg 59%
    11:00 +32°C° 0.9 mm 1 mps 738 mmHg 65%
    12:00 +31°C° 0.9 mm 1 mps 737 mmHg 71%
    13:00 +31°C° 0.9 mm 1 mps 736 mmHg 78%
    14:00 +31°C° 0.5 mm 1 mps 735 mmHg 78%
    15:00 +30°C° 0.5 mm 1 mps 735 mmHg 78%
    16:00 +30°C° 0.5 mm 1 mps 734 mmHg 79%
    17:00 +29°C° 0.7 mm 1 mps 735 mmHg 84%
    18:00 +27°C° 0.7 mm 1 mps 735 mmHg 89%
    19:00 +26°C° 0.7 mm 1 mps 736 mmHg 95%
    20:00 +26°C° 0 mm 1 mps 737 mmHg 95%
    21:00 +24°C° 0 mm 0 mps 737 mmHg 95%
    22:00 +23°C° 0 mm 0 mps 738 mmHg 96%
    23:00 +23°C° 0 mm 0 mps 737 mmHg 96%

    25 November, Sunday

    Time Temperature Precipitation Wind Pressure Humidity
    00:00 +23°C° 0 mm 0 mps 737 mmHg 96%
    01:00 +22°C° 0 mm 0 mps 736 mmHg 96%
    02:00 +22°C° 0 mm 0 mps 736 mmHg 97%
    03:00 +22°C° 0 mm 0 mps 736 mmHg 97%
    04:00 +22°C° 0 mm 0 mps 736 mmHg 98%
    05:00 +22°C° 0 mm 0 mps 737 mmHg 95%
    06:00 +23°C° 0 mm 0 mps 737 mmHg 93%
    07:00 +24°C° 0 mm 0 mps 738 mmHg 91%
    08:00 +28°C° 0.7 mm 1 mps 738 mmHg 86%
    09:00 +29°C° 0.7 mm 1 mps 738 mmHg 82%
    10:00 +31°C° 0.7 mm 1 mps 738 mmHg 77%
    11:00 +30°C° 1.1 mm 1 mps 737 mmHg 80%
    12:00 +30°C° 1.1 mm 1 mps 737 mmHg 83%
    13:00 +30°C° 1.1 mm 1 mps 736 mmHg 86%
    14:00 +30°C° 1 mm 1 mps 735 mmHg 87%
    15:00 +30°C° 1 mm 1 mps 735 mmHg 88%
    16:00 +29°C° 1 mm 1 mps 735 mmHg 89%
    17:00 +26°C° 0.5 mm 0 mps 735 mmHg 92%
    18:00 +25°C° 0.5 mm 0 mps 736 mmHg 94%
    19:00 +24°C° 0.5 mm 0 mps 736 mmHg 97%
    20:00 +23°C° 0.1 mm 0 mps 737 mmHg 97%
    21:00 +23°C° 0.1 mm 0 mps 737 mmHg 98%
    22:00 +23°C° 0.1 mm 0 mps 738 mmHg 98%
    23:00 +23°C° 0 mm 0 mps 737 mmHg 98%

    26 November, Monday

    Time Temperature Precipitation Wind Pressure Humidity
    00:00 +23°C° 0 mm 0 mps 737 mmHg 98%
    01:00 +22°C° 0 mm 0 mps 736 mmHg 99%
    02:00 +22°C° 0 mm 0 mps 736 mmHg 99%
    03:00 +22°C° 0 mm 0 mps 736 mmHg 99%
    04:00 +22°C° 0 mm 0 mps 736 mmHg 99%
    05:00 +23°C° 0.2 mm 0 mps 737 mmHg 98%
    06:00 +23°C° 0.2 mm 0 mps 737 mmHg 97%
    07:00 +26°C° 0.2 mm 1 mps 738 mmHg 96%
    08:00 +27°C° 1.3 mm 1 mps 738 mmHg 95%
    09:00 +28°C° 1.3 mm 1 mps 738 mmHg 93%
    10:00 +29°C° 1.3 mm 1 mps 738 mmHg 92%
    11:00 +30°C° 0.6 mm 1 mps 737 mmHg 86%
    12:00 +30°C° 0.6 mm 1 mps 736 mmHg 79%
    13:00 +31°C° 0.6 mm 1 mps 735 mmHg 73%
    14:00 +30°C° 1.6 mm 1 mps 735 mmHg 80%
    15:00 +29°C° 1.6 mm 1 mps 735 mmHg 88%
    16:00 +28°C° 1.6 mm 1 mps 734 mmHg 95%
    17:00 +27°C° 0.7 mm 1 mps 735 mmHg 96%
    18:00 +24°C° 0.7 mm 0 mps 736 mmHg 97%
    19:00 +23°C° 0.7 mm 0 mps 736 mmHg 98%
    20:00 +23°C° 0.2 mm 0 mps 737 mmHg 98%
    21:00 +23°C° 0.2 mm 0 mps 737 mmHg 98%
    22:00 +23°C° 0.2 mm 0 mps 737 mmHg 99%
    23:00 +23°C° 0.1 mm 0 mps 737 mmHg 99%
    Show more